Weather History for KRCA - October, 2011

Change the Weather History Date:

Saturday, October 1, 2011

  Actual Average Record
Temperature  
Mean Temperature 70 °F -  
Max Temperature 90 °F 64 °F 90 °F (2011)
Min Temperature 49 °F 40 °F 26 °F (2003)
Cooling Degree Days 4    
Growing Degree Days 20 (Base 50)    
Moisture  
Dew Point 36 °F    
Average Humidity 31    
Maximum Humidity 61    
Minimum Humidity 13    
Precipitation  
Precipitation 0.00 in - - ()
Sea Level Pressure  
Sea Level Pressure 29.96 in    
Wind  
Wind Speed 6 mph (South)    
Max Wind Speed 12 mph    
Max Gust Speed -    
Visibility 10 miles    
Events      
Averages and records for this station are not official NWS values.
T = Trace of Precipitation, MM = Missing Value Source: NWS Daily Summary

Daily Weather History Graph

Daily Weather History Graph

Search for Another Location

Airport or City:

Trip Planner

Search our weather history database for the weather conditions in past years. The results will help you decide how hot, cold, wet, or windy it might be!

Date:

Astronomy

Oct. 01, 2011 Rise Set
Actual Time 6:49 AM MDT 6:33 PM MDT
Civil Twilight 6:21 AM MDT 7:02 PM MDT
Nautical Twilight 5:47 AM MDT 7:35 PM MDT
Astronomical Twilight 5:13 AM MDT 8:09 PM MDT
Moon 12:11 PM MDT (10/1) 9:20 PM MDT (10/1)
Length of Visible Light 12h 41m
Length of Day
11h 43m
Waxing Crescent, 25% of the Moon is Illuminated
Oct 1
Waxing Crescent
Oct 3
First Quarter
Oct 11
Full
Oct 19
Last Quarter
Oct 26
New

Hourly Weather History & Observations

Time (MDT) Temp. Dew Point Humidity Pressure Visibility Wind Dir Wind Speed Gust Speed Precip Events Conditions
12:55 AM 58.8 °F 36.1 °F 43% 29.94 in 10.0 mi SSE 6.9 mph - N/A   Clear
1:55 AM 54.7 °F 36.0 °F 49% 29.94 in 10.0 mi South 5.8 mph - N/A   Clear
2:55 AM 53.4 °F 36.3 °F 52% 29.94 in 10.0 mi SSW 4.6 mph - N/A   Clear
3:55 AM 53.6 °F 36.0 °F 51% 29.94 in 10.0 mi Calm Calm - N/A   Clear
4:55 AM 49.3 °F 36.1 °F 61% 29.95 in 10.0 mi WNW 4.6 mph - N/A   Clear
5:55 AM 55.0 °F 35.2 °F 47% 29.96 in 10.0 mi North 5.8 mph - N/A   Clear
6:55 AM 49.6 °F 35.6 °F 59% 29.99 in 10.0 mi Calm Calm - N/A   Clear
7:55 AM 60.8 °F 35.8 °F 39% 29.99 in 10.0 mi WNW 4.6 mph - N/A   Clear
8:55 AM 66.7 °F 36.9 °F 33% 29.99 in 10.0 mi Calm Calm - N/A   Clear
9:55 AM 74.1 °F 37.8 °F 27% 29.99 in 10.0 mi Calm Calm - N/A   Clear
10:55 AM 81.3 °F 33.1 °F 18% 29.98 in 10.0 mi Variable 4.6 mph - N/A   Clear
11:55 AM 85.1 °F 40.6 °F 21% 29.98 in 10.0 mi ESE 10.4 mph - N/A   Clear
12:55 PM 87.8 °F 35.6 °F 16% 29.96 in 10.0 mi SE 8.1 mph - N/A   Clear
1:55 PM 89.8 °F 35.1 °F 14% 29.95 in 10.0 mi South 9.2 mph - N/A   Clear
2:55 PM 90.3 °F 33.8 °F 13% 29.94 in 10.0 mi SE 8.1 mph - N/A   Clear
3:55 PM 90.1 °F 33.6 °F 13% 29.94 in 10.0 mi SSE 11.5 mph - N/A   Partly Cloudy
4:55 PM 88.5 °F 34.2 °F 14% 29.94 in 10.0 mi SSE 11.5 mph - N/A   Scattered Clouds
5:55 PM 81.3 °F 37.0 °F 20% 29.94 in 10.0 mi SE 9.2 mph - N/A   Partly Cloudy
6:55 PM 74.3 °F 36.7 °F 25% 29.96 in 10.0 mi SE 8.1 mph - N/A   Mostly Cloudy
7:55 PM 71.8 °F 35.4 °F 26% 29.95 in 10.0 mi South 4.6 mph - N/A   Clear
8:55 PM 70.3 °F 34.3 °F 27% 29.95 in 10.0 mi South 5.8 mph - N/A   Clear
9:55 PM 69.3 °F 35.2 °F 29% 29.94 in 10.0 mi SW 5.8 mph - N/A   Clear
10:55 PM 67.3 °F 34.2 °F 29% 29.94 in 10.0 mi South 6.9 mph - N/A   Clear
11:55 PM 68.7 °F 34.3 °F 28% 29.93 in 10.0 mi SW 4.6 mph - N/A   Clear